E20ZNR-1 Weather Reports


time (UTC)temp
F
wind
direction
speed
knots
gust
knots
rain 1hr
in
rain 24hr
in
rain mn
in
humidity
%
barometer
mb
20260508084308 86 0 0.0 0.0 0.00 0.00 0.00 94 1004.0
20260508082742 88 0 0.0 0.0 0.00 0.00 0.00 86 1003.0
20260508081217 89 0 0.0 0.0 0.00 0.00 0.00 82 1003.0
20260508075652 88 0 0.0 0.0 0.00 0.00 0.00 79 1003.0
20260508074125 89 0 0.0 0.0 0.00 0.00 0.00 76 1004.0
20260508072600 89 0 0.0 0.0 0.00 0.00 0.00 72 1004.0
20260508071035 90 0 0.0 0.0 0.00 0.00 0.00 68 1004.0
20260508065509 91 0 0.0 0.0 0.00 0.00 0.00 64 1004.0
20260508063944 91 0 0.0 0.0 0.00 0.00 0.00 64 1004.0
20260508062417 91 0 0.0 0.0 0.00 0.00 0.00 57 1004.0
20260508060853 97 0 0.0 0.0 0.00 0.00 0.00 56 1003.0
20260508055328 101 0 0.0 0.0 0.00 0.00 0.00 44 1003.0
20260508053802 101 0 0.0 0.0 0.00 0.00 0.00 43 1004.0
20260508052238 103 0 0.0 0.0 0.00 0.00 0.00 49 1004.0
20260508050713 103 0 0.0 0.0 0.00 0.00 0.00 46 1004.0
20260508045148 105 0 0.0 0.0 0.00 0.00 0.00 49 1005.0
20260508043623 103 0 0.0 0.0 0.00 0.00 0.00 51 1005.0
20260508042059 104 0 0.0 0.0 0.00 0.00 0.00 54 1006.0
20260508040534 98 0 0.0 0.0 0.00 0.00 0.00 57 1006.0
20260508035009 101 0 0.0 0.0 0.00 0.00 0.00 58 1006.0
20260508033445 101 0 0.0 0.0 0.00 0.00 0.00 57 1006.0
20260508031919 100 0 0.0 0.0 0.00 0.00 0.00 58 1006.0
20260508030355 98 0 0.0 0.0 0.00 0.00 0.00 59 1006.0
20260508024830 101 0 0.0 0.0 0.00 0.00 0.00 57 1006.0
20260508023304 99 0 0.0 0.0 0.00 0.00 0.00 60 1006.0
20260508021739 101 0 0.0 0.0 0.00 0.00 0.00 58 1006.0
20260508020215 98 0 0.0 0.0 0.00 0.00 0.00 57 1006.0
20260508014649 111 0 0.0 0.0 0.00 0.00 0.00 40 1006.0
20260508013124 111 0 0.0 0.0 0.00 0.00 0.00 41 1006.0
20260508011558 111 0 0.0 0.0 0.00 0.00 0.00 42 1006.0
20260508010033 105 0 0.0 0.0 0.00 0.00 0.00 51 1006.0
20260508004508 100 0 0.0 0.0 0.00 0.00 0.00 58 1006.0
20260508002942 94 0 0.0 0.0 0.00 0.00 0.00 73 1006.0
20260508001416 93 0 0.0 0.0 0.00 0.00 0.00 79 1006.0
20260507235851 89 0 0.0 0.0 0.00 0.00 0.00 99 1005.0
20260507234327 83 0 0.0 0.0 0.00 0.00 0.00 99 1005.0
20260507232800 81 0 0.0 0.0 0.00 0.00 0.00 99 1005.0
20260507231234 80 0 0.0 0.0 0.00 0.00 0.00 99 1005.0
20260507225709 80 0 0.0 0.0 0.00 0.00 0.00 99 1005.0
20260507224142 80 0 0.0 0.0 0.00 0.00 0.00 99 1005.0
20260507222616 80 0 0.0 0.0 0.00 0.00 0.00 99 1005.0
20260507221051 80 0 0.0 0.0 0.00 0.00 0.00 99 1005.0
20260507215525 80 0 0.0 0.0 0.00 0.00 0.00 99 1004.0
20260507213959 80 0 0.0 0.0 0.00 0.00 0.00 99 1004.0
20260507212434 80 0 0.0 0.0 0.00 0.00 0.00 99 1004.0
20260507210909 80 0 0.0 0.0 0.00 0.00 0.00 99 1004.0
20260507205343 80 0 0.0 0.0 0.00 0.00 0.00 99 1004.0
20260507203817 80 0 0.0 0.0 0.00 0.00 0.00 99 1004.0
20260507202251 80 0 0.0 0.0 0.00 0.00 0.00 99 1004.0
20260507200726 80 0 0.0 0.0 0.00 0.00 0.00 99 1004.0
20260507195202 80 0 0.0 0.0 0.00 0.00 0.00 99 1004.0
20260507193637 80 0 0.0 0.0 0.00 0.00 0.00 99 1004.0
20260507192112 80 0 0.0 0.0 0.00 0.00 0.00 99 1004.0
20260507190546 80 0 0.0 0.0 0.00 0.00 0.00 99 1004.0
20260507185022 81 0 0.0 0.0 0.00 0.00 0.00 99 1005.0
20260507183456 81 0 0.0 0.0 0.00 0.00 0.00 99 1005.0
20260507181931 81 0 0.0 0.0 0.00 0.00 0.00 99 1005.0
20260507180406 81 0 0.0 0.0 0.00 0.00 0.00 99 1005.0
20260507174841 81 0 0.0 0.0 0.00 0.00 0.00 99 1005.0
20260507173315 81 0 0.0 0.0 0.00 0.00 0.00 99 1005.0
20260507171751 82 0 0.0 0.0 0.00 0.00 0.00 99 1005.0
20260507170226 82 0 0.0 0.0 0.00 0.00 0.00 99 1005.0
20260507164700 82 0 0.0 0.0 0.00 0.00 0.00 99 1005.0
20260507163135 82 0 0.0 0.0 0.00 0.00 0.00 99 1006.0
20260507161610 82 0 0.0 0.0 0.00 0.00 0.00 99 1006.0
20260507160044 82 0 0.0 0.0 0.00 0.00 0.00 99 1006.0
20260507154519 82 0 0.0 0.0 0.00 0.00 0.00 99 1006.0
20260507152954 82 0 0.0 0.0 0.00 0.00 0.00 99 1006.0
20260507151429 82 0 0.0 0.0 0.00 0.00 0.00 99 1006.0
20260507145904 82 0 0.0 0.0 0.00 0.00 0.00 99 1006.0
20260507144339 82 0 0.0 0.0 0.00 0.00 0.00 99 1006.0
20260507142814 83 0 0.0 0.0 0.00 0.00 0.00 99 1006.0
20260507141248 83 0 0.0 0.0 0.00 0.00 0.00 99 1005.0
20260507135722 83 0 0.0 0.0 0.00 0.00 0.00 99 1005.0
20260507134157 83 0 0.0 0.0 0.00 0.00 0.00 99 1004.0
20260507132632 83 0 0.0 0.0 0.00 0.00 0.00 99 1004.0
20260507131107 83 0 0.0 0.0 0.00 0.00 0.00 99 1004.0
20260507125540 83 0 0.0 0.0 0.00 0.00 0.00 99 1003.0
20260507124016 83 0 0.0 0.0 0.00 0.00 0.00 99 1003.0
20260507122450 83 0 0.0 0.0 0.00 0.00 0.00 99 1003.0
20260507120924 84 0 0.0 0.0 0.00 0.00 0.00 99 1003.0
20260507115358 84 0 0.0 0.0 0.00 0.00 0.00 99 1003.0
20260507113832 84 0 0.0 0.0 0.00 0.00 0.00 99 1003.0
20260507112307 84 0 0.0 0.0 0.00 0.00 0.00 99 1003.0
20260507110740 85 0 0.0 0.0 0.00 0.00 0.00 99 1003.0
20260507105215 85 0 0.0 0.0 0.00 0.00 0.00 99 1003.0
20260507103649 85 0 0.0 0.0 0.00 0.00 0.00 99 1002.0
20260507102123 85 0 0.0 0.0 0.00 0.00 0.00 98 1003.0
20260507100559 86 0 0.0 0.0 0.00 0.00 0.00 89 1003.0
20260507095033 86 0 0.0 0.0 0.00 0.00 0.00 82 1002.0
20260507093507 86 0 0.0 0.0 0.00 0.00 0.00 81 1002.0
20260507091941 86 0 0.0 0.0 0.00 0.00 0.00 81 1002.0
20260507090416 86 0 0.0 0.0 0.00 0.00 0.00 86 1002.0